Regional Weather Roundup
Issued by NWS

Home | Current Version | Previous Version | Graphics & Text | Print | Product List | Glossary Off
Versions: 1 2 3 4 5 6 7 8 9 10 11 12 13 14 15 16 17 18 19 20 21 22 23 24 25 26 27 28 29 30 31 32 33 34 35 36 37 38 39 40 41 42 43 44 45 46 47 48 49 50

000
ASUS43 KMKX 280911
RWRWI

WISCONSIN REGIONAL WEATHER ROUNDUP
NATIONAL WEATHER SERVICE MILWAUKEE/SULLIVAN WI
400 AM CDT WED SEP 28 2016

NOTE: "FAIR" INDICATES FEW OR NO CLOUDS BELOW 12,000 FEET WITH NO
SIGNIFICANT WEATHER AND/OR OBSTRUCTIONS TO VISIBILITY.

WIZ001-002-006>008-014>016-023>028-281000-
NORTHWEST WISCONSIN

CITY           SKY/WX    TMP DP  RH WIND       PRES   REMARKS
SUPERIOR ARPT  CLOUDY    53  48  84 N12G17    29.97R
ASHLAND        CLOUDY    52  50  93 NE15      29.93R
HAYWARD        LGT RAIN  51  49  92 N10       29.92R FOG
SIREN          CLOUDY    49  48  95 N7        29.96R
CUMBERLAND     CLOUDY    46  45  93 N12       29.93R
RICE LAKE      CLOUDY    50  46  88 N7        29.93R
CHETEK         NOT AVBL
LADYSMITH      CLOUDY    51  50  95 NW10G16   29.89R FOG
EAU CLAIRE     CLOUDY    50  48  93 NW8       29.88R
MENOMONIE      CLOUDY    49  49 100 W8        29.91R
NEW RICHMOND   CLOUDY    49  47  95 NW10G16   29.95R
OSCEOLA        CLOUDY    50  50 100 NW9       29.99R
$$

WIZ003>005-009-010-017-018-281000-
NORTH CENTRAL WISCONSIN

CITY           SKY/WX    TMP DP  RH WIND       PRES   REMARKS
MANITOWISH WTR NOT AVBL
ARBOR VITAE    MOCLDY    52  51  97 N6        29.84R
WOODRUFF       MOCLDY    52  51  97 N6        29.84R
RHINELANDER    CLOUDY    50  50 100 N5        29.83R
EAGLE RIVER    CLOUDY    50  50 100 N6        29.83R
LAND O LAKES   CLOUDY    51  50  97 N5        29.85R
PHILLIPS       CLOUDY    49  49 100 N5        29.85R
TOMAHAWK       MOCLDY    47  46  95 CALM      29.84R
MEDFORD        CLOUDY   N/A N/A N/A N10       29.83R
MERRILL        CLOUDY    49  49 100 N3        29.83R
$$

WIZ029-030-035-036-043>047-281000-
CENTRAL WISCONSIN

CITY           SKY/WX    TMP DP  RH WIND       PRES   REMARKS
WAUSAU         CLOUDY    50  48  93 NW5       29.80R
MOSINEE        CLOUDY    46  46 100 NW8       29.83R
MARSHFIELD     CLOUDY    50  47  89 N9        29.82R
STEVENS POINT  CLOUDY    47  47  99 NW5       29.82R
WAUPACA        CLOUDY    52  51  95 NW5       29.81R
WAUTOMA        NOT AVBL
WISC RAPIDS    CLOUDY    49  49 100 NW5       29.83R
CAMP DOUGLAS   CLOUDY    48  48 100 NW7       29.84R
$$

WIZ011>013-019>022-031-037>040-048>050-281000-
NORTHEAST WISCONSIN

CITY           SKY/WX    TMP DP  RH WIND       PRES   REMARKS
ANTIGO         CLOUDY    49  48  99 CALM      29.81R
SHAWANO        CLOUDY    51  49  92 CALM      29.80R
OCONTO         NOT AVBL
STURGEON BAY   CLOUDY    51  49  92 N3        29.79R
GREEN BAY      CLOUDY    50  50 100 W5        29.79R
MANITOWOC      PTCLDY    49  47  93 CALM      29.79R
APPLETON       CLOUDY    48  48 100 NW7       29.78S
CLINTONVILLE   NOT AVBL
OSHKOSH        CLOUDY    50  48  93 NW7       29.79R
$$

WIZ032>034-041-042-053>061-281000-
SOUTHWEST WISCONSIN

CITY           SKY/WX    TMP DP  RH WIND       PRES   REMARKS
LA CROSSE      CLOUDY    53  48  83 NW12      29.88R
SPARTA         CLOUDY    48  48  97 NW3       29.87R
VIROQUA        CLOUDY    47  47  99 N9G16     29.86R
BOSCOBEL       CLOUDY    51  46  83 VRB5      29.86R
PRAIRIE DU CHI CLOUDY    51  45  80 NW7       29.87R
PLATTEVILLE    CLOUDY    49  47  94 N10       29.85R
$$

WIZ056-057-062-063-064-067-068-281000-
SOUTH CENTRAL WISCONSIN

CITY           SKY/WX    TMP DP  RH WIND       PRES   REMARKS
REEDSBURG      NOT AVBL
BARABOO/DELLS  CLOUDY    48  46  95 NW6       29.82S FOG
LONE ROCK      CLOUDY    50  46  86 NW7       29.85R
MINERAL POINT  CLOUDY    50  46  87 NW6       29.84R
MADISON        CLOUDY    49  48  97 NW5       29.81R FOG
MIDDLETON      CLOUDY    50  50 100 NW8       29.83R
WATERTOWN      CLOUDY    48  48 100 NW5       29.80R FOG
MONROE         CLOUDY    46  46 100 NW5       29.81S
JANESVILLE     CLOUDY    50  48  93 NW7       29.80S
$$

WIZ051-052-058>065-066-070>072-281000-
SOUTHEAST WISCONSIN

CITY           SKY/WX    TMP DP  RH WIND       PRES   REMARKS
MILWAUKEE      LGT RAIN  51  48  89 W5        29.79R
WAUKESHA       CLOUDY    46  45  93 W5        29.80S
MILWAUKEE/TIMM CLOUDY    48  45  87 W3        29.80R
RACINE         CLOUDY    50  47  89 NW7       29.80R
BURLINGTON     CLOUDY    47  46  94 NW5       29.80R
KENOSHA        CLOUDY    50  47  89 NW5       29.79S
FOND DU LAC    CLOUDY    50  48  93 NW9       29.80R
SHEBOYGAN      MOCLDY    49  46  90 NW5       29.79R
WEST BEND      CLOUDY    48  46  93 NW3       29.79R FOG
JUNEAU         CLOUDY    48  47  96 NW6       29.82R
$$

LSZ147-162-281000-
LAKE SUPERIOR

STATION/POSITION TIME  TEMP    WIND        PRES    WAVE
                       AIR SEA DIR/SP/G            HT/PER
                 (UTC) (F)     (DEG/KT/KT) (MB)    (FT/S)
W MID LAKE BUOY  0850   56 53   20/ 23/ 29 1012.4R   6/ 6
DEVILS ISLAND    0800   53      10/ 19/ 20 1013.4R
SAXON HARBOR     0829   56      10/ 20/ 25 1012.2R
$$

LMZ867-665-643>646-281000-
LAKE MICHIGAN

STATION/POSITION TIME  TEMP    WIND        PRES    WAVE
                       AIR SEA DIR/SP/G            HT/PER
                 (UTC) (F)     (DEG/KT/KT) (MB)    (FT/S)
CHAMBERS ISLAND  0800   54     330/  7/ 10 1008.1R
S GREEN BAY BUOY 0800   54 62  330/ 10/ 12 1008.1
N MID LAKE BUOY  0850   57 66  150/ 12/ 14 1008.2R   2/ 6
NORTHPORT PIER   0800   56      30/  9/ 10 1008.1R
SISTER BAY       0808   53      30/  6/  8   N/A
KEWAUNEE LAKESHO 0800   49     310/  3/  4 1007.7R
SHEBOYGAN LAKESH 0900   50     330/  5/  6 1008.6R
PORT WASHINGTON  0840   51     280/  3/  5 1009.8R
ATWATER BUOY     0800   51 54  260/  4/  6 1008.6F
MILWAUKEE LAKESH 0810   51     300/  5/  6   N/A
S MID LAKE BUOY  0850   56 69  280/  8/ 10 1008.2R   2/ 4
KENOSHA   LAKESH 0900   50     290/  4/  6 1008.8R
$$

TC  - TEMPERATURE IN CELSIUS
VSB - VISIBILITY IN STATUTE MILES
WCI - WIND CHILL INDEX
HX  - HEAT INDEX





USA.gov is the U.S. government's official web portal to all federal, state and local government web resources and services.